Edwards AFB North Base, CA

8:09 PM PDT on October 13, 2019 (GMT -0700)
Edwards AFB North Base

Weather History for K9L2 - May, 2019

Change the Weather History Date:

Tuesday, May 28, 2019

  Actual Average (WUND) Record (WUND)
Temperature  
Mean Temperature 60 °F -  
Max Temperature 81 °F - - (-1)
Min Temperature 41 °F - - (-1)
Degree Days  
Heating Degree Days 4    
Growing Degree Days 10 (Base 50)    
Moisture  
Dew Point 38 °F    
Average Humidity 43    
Maximum Humidity 77    
Minimum Humidity 17    
Precipitation  
Precipitation 0.00 in - - ()
Sea Level Pressure  
Sea Level Pressure 29.85 in    
Wind  
Wind Speed 4 mph ()    
Max Wind Speed 22 mph    
Max Gust Speed 18 mph    
Visibility 8.2 miles    
Events      
Averages and records for this station are not official NWS values.
T = Trace of Precipitation, MM = Missing Value Source: Averaged Metar Reports

Daily Weather History Graph

Daily Weather History Graph

Search for Another Location

Airport or City:

Astronomy

May. 28, 2019 Rise Set
Actual Time 5:40 AM PDT 7:57 PM PDT
Civil Twilight 5:11 AM PDT 8:26 PM PDT
Nautical Twilight 4:35 AM PDT 9:02 PM PDT
Astronomical Twilight 3:57 AM PDT 9:40 PM PDT
Moon 2:37 AM PDT (5/28) 2:28 PM PDT (5/28)
Length of Visible Light 15h 15m
Length of Day
14h 17m
Waning Crescent, 30% of the Moon is Illuminated
May 28
Waning Crescent
Jun 3
New
Jun 9
First Quarter
Jun 17
Full
Jun 25
Last Quarter

Hourly Weather History & Observations

Time (PDT) Temp. Windchill Dew Point Humidity Pressure Visibility Wind Dir Wind Speed Gust Speed Precip Events Conditions
12:58 AM 49.5 °F - 36.3 °F 61% 29.91 in 10.0 mi Calm Calm - N/A   Clear
1:58 AM 47.8 °F - 35.6 °F 63% 29.91 in 10.0 mi Calm Calm - N/A   Clear
2:58 AM 44.4 °F - 34.2 °F 67% 29.90 in 10.0 mi Calm Calm - N/A   Clear
3:58 AM 42.3 °F 38.6 °F 35.6 °F 77% 29.90 in 10.0 mi NNW 5.8 mph - N/A   Clear
4:58 AM 41.5 °F - 32.0 °F 69% 29.91 in 10.0 mi Calm Calm - N/A   Clear
5:58 AM 42.3 °F - 33.1 °F 70% 29.91 in 10.0 mi Calm Calm - N/A   Clear
6:58 AM 45.7 °F 44.4 °F 34.7 °F 65% 29.91 in 10.0 mi ENE 3.5 mph - N/A   Clear
7:58 AM 50.4 °F - 36.9 °F 60% 29.91 in 9.0 mi Calm Calm - N/A   Clear
8:58 AM 59.2 °F - 38.3 °F 46% 29.91 in 8.0 mi East 10.4 mph - N/A   Clear
9:58 AM 64.0 °F - 37.8 °F 38% 29.90 in 8.0 mi East 4.6 mph - N/A   Clear
10:58 AM 67.1 °F - 37.8 °F 34% 29.90 in 7.0 mi Calm Calm - N/A   Clear
11:43 AM 69.8 °F - 37.4 °F 31% 29.89 in 6.0 mi Calm Calm - N/A   Haze
11:58 AM 71.1 °F - 37.0 °F 29% 29.88 in 7.0 mi Calm Calm - N/A   Clear
12:58 PM 73.2 °F - 36.7 °F 26% 29.85 in 8.0 mi East 5.8 mph - N/A   Clear
1:58 PM 76.3 °F - 36.1 °F 23% 29.82 in 8.0 mi SSW 8.1 mph - N/A   Clear
2:58 PM 78.1 °F - 35.2 °F 21% 29.80 in 8.0 mi East 6.9 mph - N/A   Clear
3:58 PM 79.2 °F - 32.7 °F 19% 29.80 in 7.0 mi WNW 6.9 mph - N/A   Clear
4:13 PM 80.6 °F - 32.0 °F 17% 29.78 in 6.0 mi West 10.4 mph - N/A   Haze
4:58 PM 80.4 °F - 36.0 °F 20% 29.79 in 6.0 mi West 15.0 mph 18.4 mph N/A   Haze
5:28 PM 78.8 °F - 37.4 °F 23% 29.78 in 7.0 mi West 18.4 mph - N/A   Clear
5:58 PM 78.1 °F - 38.7 °F 24% 29.78 in 6.0 mi West 20.7 mph - N/A   Haze
6:13 PM 75.2 °F - 41.0 °F 29% 29.79 in 7.0 mi West 19.6 mph - N/A   Clear
6:58 PM 71.8 °F - 44.1 °F 37% 29.80 in 7.0 mi WSW 21.9 mph - N/A   Clear
7:58 PM 67.3 °F - 42.8 °F 41% 29.82 in 7.0 mi West 9.2 mph - N/A   Clear
8:58 PM 63.9 °F - 42.4 °F 46% 29.83 in 9.0 mi SSE 3.5 mph - N/A   Clear
9:58 PM 61.5 °F - 43.3 °F 51% 29.85 in 9.0 mi SSW 6.9 mph - N/A   Clear
10:58 PM 59.5 °F - 43.3 °F 55% 29.85 in 9.0 mi South 10.4 mph - N/A   Clear
11:58 PM 58.6 °F - 43.9 °F 58% 29.85 in 10.0 mi SSW 6.9 mph - N/A   Clear